Year,Month,Day,Hour,Minute,Value (Times are PST for temperature in C)
2014,03,28,00,01,7.70
2014,03,28,00,03,7.70
2014,03,28,00,04,7.70
2014,03,28,00,05,7.70
2014,03,28,00,06,7.70
2014,03,28,00,07,7.70
2014,03,28,00,08,7.70
2014,03,28,00,09,7.70
2014,03,28,00,10,7.70
2014,03,28,00,11,7.70
2014,03,28,00,12,7.70
2014,03,28,00,13,7.70
2014,03,28,00,14,7.70
2014,03,28,00,15,7.70
2014,03,28,00,17,7.70
2014,03,28,00,18,7.70
2014,03,28,00,19,7.70
2014,03,28,00,20,7.60
2014,03,28,00,21,7.60
2014,03,28,00,22,7.60
2014,03,28,00,23,7.60
2014,03,28,00,24,7.60
2014,03,28,00,25,7.60
2014,03,28,00,26,7.60
2014,03,28,00,27,7.60
2014,03,28,00,28,7.60
2014,03,28,00,29,7.60
2014,03,28,00,30,7.60
2014,03,28,00,31,7.60
2014,03,28,00,32,7.60
2014,03,28,00,33,7.50
2014,03,28,00,34,7.50
2014,03,28,00,35,7.50
2014,03,28,00,36,7.50
2014,03,28,00,37,7.50
2014,03,28,00,38,7.50
2014,03,28,00,39,7.40
2014,03,28,00,40,7.40
2014,03,28,00,41,7.40
2014,03,28,00,42,7.40
2014,03,28,00,43,7.40
2014,03,28,00,44,7.40
2014,03,28,00,45,7.40
2014,03,28,00,46,7.40
2014,03,28,00,47,7.40
2014,03,28,00,48,7.40
2014,03,28,00,49,7.40
2014,03,28,00,50,7.40
2014,03,28,00,51,7.40
2014,03,28,00,52,7.40
2014,03,28,00,53,7.40
2014,03,28,00,54,7.50
2014,03,28,00,55,7.50
2014,03,28,00,56,7.50
2014,03,28,00,57,7.50
2014,03,28,00,58,7.50
2014,03,28,01,00,7.50
2014,03,28,01,01,7.50
2014,03,28,01,02,7.50
2014,03,28,01,04,7.50
2014,03,28,01,05,7.50
2014,03,28,01,06,7.50
2014,03,28,01,07,7.50
2014,03,28,01,08,7.40
2014,03,28,01,09,7.40
2014,03,28,01,10,7.40
2014,03,28,01,11,7.40
2014,03,28,01,12,7.40
2014,03,28,01,13,7.40
2014,03,28,01,14,7.40
2014,03,28,01,15,7.40
2014,03,28,01,16,7.40
2014,03,28,01,17,7.40
2014,03,28,01,18,7.40
2014,03,28,01,19,7.40
2014,03,28,01,20,7.40
2014,03,28,01,21,7.40
2014,03,28,01,22,7.40
2014,03,28,01,23,7.40
2014,03,28,01,24,7.40
2014,03,28,01,25,7.40
2014,03,28,01,26,7.40
2014,03,28,01,27,7.40
2014,03,28,01,28,7.40
2014,03,28,01,29,7.40
2014,03,28,01,30,7.30
2014,03,28,01,31,7.30
2014,03,28,01,32,7.30
2014,03,28,01,33,7.30
2014,03,28,01,34,7.30
2014,03,28,01,35,7.30
2014,03,28,01,36,7.30
2014,03,28,01,37,7.30
2014,03,28,01,38,7.30
2014,03,28,01,39,7.30
2014,03,28,01,40,7.30
2014,03,28,01,41,7.20
2014,03,28,01,42,7.20
2014,03,28,01,43,7.20
2014,03,28,01,44,7.20
2014,03,28,01,45,7.20
2014,03,28,01,47,7.20
2014,03,28,01,48,7.20
2014,03,28,01,49,7.20
2014,03,28,01,50,7.20
2014,03,28,01,51,7.20
2014,03,28,01,52,7.20
2014,03,28,01,53,7.10
2014,03,28,01,54,7.10
2014,03,28,01,55,7.10
2014,03,28,01,56,7.10
2014,03,28,01,57,7.10
2014,03,28,01,58,7.10
2014,03,28,01,59,7.10
2014,03,28,02,00,7.10
2014,03,28,02,01,7.10
2014,03,28,02,02,7.10
2014,03,28,02,04,7.10
2014,03,28,02,05,7.10
2014,03,28,02,06,7.10
2014,03,28,02,07,7.10
2014,03,28,02,08,7.10
2014,03,28,02,09,7.10
2014,03,28,02,10,7.10
2014,03,28,02,11,7.10
2014,03,28,02,12,7.10
2014,03,28,02,13,7.10
2014,03,28,02,14,7.10
2014,03,28,02,15,7.10
2014,03,28,02,16,7.10
2014,03,28,02,18,7.10
2014,03,28,02,19,7.10
2014,03,28,02,20,7.10
2014,03,28,02,21,7.10
2014,03,28,02,23,7.10
2014,03,28,02,24,7.10
2014,03,28,02,25,7.10
2014,03,28,02,26,7.10
2014,03,28,02,27,7.10
2014,03,28,02,28,7.10
2014,03,28,02,29,7.10
2014,03,28,02,30,7.10
2014,03,28,02,31,7.10
2014,03,28,02,32,7.10
2014,03,28,02,33,7.10
2014,03,28,02,34,7.10
2014,03,28,02,35,7.10
2014,03,28,02,36,7.10
2014,03,28,02,37,7.10
2014,03,28,02,38,7.10
2014,03,28,02,39,7.10
2014,03,28,02,40,7.10
2014,03,28,02,41,7.10
2014,03,28,02,42,7.10
2014,03,28,02,43,7.10
2014,03,28,02,44,7.10
2014,03,28,02,45,7.10
2014,03,28,02,47,7.10
2014,03,28,02,48,7.10
2014,03,28,02,49,7.10
2014,03,28,02,50,7.10
2014,03,28,02,51,7.10
2014,03,28,02,52,7.10
2014,03,28,02,53,7.20
2014,03,28,02,54,7.20
2014,03,28,02,55,7.20
2014,03,28,02,56,7.20
2014,03,28,02,57,7.20
2014,03,28,02,58,7.20
2014,03,28,02,59,7.20
2014,03,28,03,00,7.20
2014,03,28,03,01,7.20
2014,03,28,03,03,7.20
2014,03,28,03,04,7.20
2014,03,28,03,05,7.10
2014,03,28,03,06,7.10
2014,03,28,03,07,7.10
2014,03,28,03,08,7.10
2014,03,28,03,09,7.10
2014,03,28,03,10,7.10
2014,03,28,03,11,7.10
2014,03,28,03,12,7.10
2014,03,28,03,13,7.10
2014,03,28,03,14,7.10
2014,03,28,03,15,7.10
2014,03,28,03,16,7.10
2014,03,28,03,17,7.10
2014,03,28,03,18,7.10
2014,03,28,03,19,7.10
2014,03,28,03,20,7.10
2014,03,28,03,21,7.10
2014,03,28,03,22,7.10
2014,03,28,03,23,7.00
2014,03,28,03,25,7.00
2014,03,28,03,26,7.00
2014,03,28,03,27,7.00
2014,03,28,03,28,7.00
2014,03,28,03,29,7.00
2014,03,28,03,30,7.00
2014,03,28,03,32,7.00
2014,03,28,03,33,6.90
2014,03,28,03,34,6.90
2014,03,28,03,36,6.90
2014,03,28,03,38,6.90
2014,03,28,03,40,6.90
2014,03,28,03,41,6.90
2014,03,28,03,42,6.90
2014,03,28,03,43,6.90
2014,03,28,03,44,6.90
2014,03,28,03,46,6.90
2014,03,28,03,48,6.90
2014,03,28,03,49,6.90
2014,03,28,03,50,6.90
2014,03,28,03,51,6.90
2014,03,28,03,52,6.90
2014,03,28,03,53,6.90
2014,03,28,03,54,6.90
2014,03,28,03,56,6.90
2014,03,28,03,57,6.90
2014,03,28,03,58,6.90
2014,03,28,04,00,6.90
2014,03,28,04,02,6.90
2014,03,28,04,03,6.80
2014,03,28,04,04,6.90
2014,03,28,04,05,6.80
2014,03,28,04,06,6.80
2014,03,28,04,07,6.90
2014,03,28,04,08,6.80
2014,03,28,04,09,6.80
2014,03,28,04,10,6.80
2014,03,28,04,11,6.80
2014,03,28,04,13,6.80
2014,03,28,04,14,6.80
2014,03,28,04,15,6.80
2014,03,28,04,16,6.80
2014,03,28,04,19,6.80
2014,03,28,04,20,6.80
2014,03,28,04,21,6.80
2014,03,28,04,23,6.80
2014,03,28,04,24,6.80
2014,03,28,04,26,6.80
2014,03,28,04,28,6.80
2014,03,28,04,29,6.80
2014,03,28,04,31,6.80
2014,03,28,04,33,6.80
2014,03,28,04,35,6.80
2014,03,28,04,36,6.80
2014,03,28,04,37,6.80
2014,03,28,04,38,6.80
2014,03,28,04,40,6.80
2014,03,28,04,41,6.80
2014,03,28,04,43,6.80
2014,03,28,04,44,6.80
2014,03,28,04,46,6.70
2014,03,28,04,47,6.70
2014,03,28,04,48,6.70
2014,03,28,04,49,6.70
2014,03,28,04,50,6.70
2014,03,28,04,52,6.70
2014,03,28,04,53,6.70
2014,03,28,04,54,6.70
2014,03,28,04,55,6.70
2014,03,28,04,56,6.70
2014,03,28,04,58,6.70
2014,03,28,04,59,6.70
2014,03,28,05,01,6.70
2014,03,28,05,03,6.70
2014,03,28,05,04,6.70
2014,03,28,05,05,6.70
2014,03,28,05,06,6.70
2014,03,28,05,07,6.70
2014,03,28,05,08,6.70
2014,03,28,05,09,6.70
2014,03,28,05,10,6.70
2014,03,28,05,12,6.70
2014,03,28,05,14,6.70
2014,03,28,05,15,6.70
2014,03,28,05,16,6.70
2014,03,28,05,18,6.70
2014,03,28,05,19,6.70
2014,03,28,05,20,6.70
2014,03,28,05,21,6.70
2014,03,28,05,23,6.70
2014,03,28,05,24,6.70
2014,03,28,05,25,6.70
2014,03,28,05,26,6.70
2014,03,28,05,27,6.70
2014,03,28,05,28,6.70
2014,03,28,05,29,6.70
2014,03,28,05,30,6.70
2014,03,28,05,32,6.70
2014,03,28,05,34,6.70
2014,03,28,05,35,6.70
2014,03,28,05,37,6.70
2014,03,28,05,38,6.70
2014,03,28,05,39,6.70
2014,03,28,05,41,6.70
2014,03,28,05,43,6.70
2014,03,28,05,44,6.70
2014,03,28,05,45,6.70
2014,03,28,05,47,6.70
2014,03,28,05,49,6.70
2014,03,28,05,50,6.70
2014,03,28,05,51,6.70
2014,03,28,05,53,6.70
2014,03,28,05,54,6.70
2014,03,28,05,55,6.70
2014,03,28,05,56,6.70
2014,03,28,05,58,6.70
2014,03,28,05,59,6.70
2014,03,28,06,00,6.70
2014,03,28,06,01,6.70
2014,03,28,06,03,6.70
2014,03,28,06,04,6.70
2014,03,28,06,05,6.70
2014,03,28,06,06,6.70
2014,03,28,06,07,6.70
2014,03,28,06,08,6.70
2014,03,28,06,09,6.70
2014,03,28,06,10,6.70
2014,03,28,06,11,6.70
2014,03,28,06,13,6.70
2014,03,28,06,14,6.70
2014,03,28,06,15,6.70
2014,03,28,06,17,6.70
2014,03,28,06,18,6.60
2014,03,28,06,19,6.60
2014,03,28,06,21,6.60
2014,03,28,06,23,6.60
2014,03,28,06,24,6.60
2014,03,28,06,25,6.60
2014,03,28,06,27,6.60
2014,03,28,06,28,6.60
2014,03,28,06,29,6.60
2014,03,28,06,30,6.60
2014,03,28,06,31,6.60
2014,03,28,06,32,6.60
2014,03,28,06,34,6.60
2014,03,28,06,36,6.60
2014,03,28,06,38,6.60
2014,03,28,06,39,6.60
2014,03,28,06,40,6.60
2014,03,28,06,41,6.60
2014,03,28,06,42,6.60
2014,03,28,06,44,6.60
2014,03,28,06,45,6.60
2014,03,28,06,47,6.60
2014,03,28,06,49,6.60
2014,03,28,06,50,6.60
2014,03,28,06,52,6.60
2014,03,28,06,54,6.60
2014,03,28,06,55,6.60
2014,03,28,06,57,6.60
2014,03,28,06,58,6.60
2014,03,28,06,59,6.60
2014,03,28,07,01,6.60
2014,03,28,07,02,6.60
2014,03,28,07,03,6.60
2014,03,28,07,04,6.60
2014,03,28,07,05,6.60
2014,03,28,07,06,6.60
2014,03,28,07,07,6.60
2014,03,28,07,08,6.60
2014,03,28,07,09,6.60
2014,03,28,07,10,6.60
2014,03,28,07,11,6.60
2014,03,28,07,12,6.60
2014,03,28,07,14,6.60
2014,03,28,07,16,6.60
2014,03,28,07,18,6.60
2014,03,28,07,19,6.60
2014,03,28,07,21,6.60
2014,03,28,07,23,6.60
2014,03,28,07,24,6.60
2014,03,28,07,25,6.60
2014,03,28,07,27,6.60
2014,03,28,07,28,6.60
2014,03,28,07,30,6.60
2014,03,28,07,32,6.60
2014,03,28,07,33,6.60
2014,03,28,07,34,6.60
2014,03,28,07,36,6.50
2014,03,28,07,37,6.50
2014,03,28,07,39,6.50
2014,03,28,07,40,6.50
2014,03,28,07,41,6.40
2014,03,28,07,43,6.40
2014,03,28,07,44,6.40
2014,03,28,07,46,6.40
2014,03,28,07,47,6.40
2014,03,28,07,48,6.40
2014,03,28,07,49,6.40
2014,03,28,07,52,6.40
2014,03,28,07,53,6.40
2014,03,28,07,54,6.40
2014,03,28,07,55,6.40
2014,03,28,07,57,6.40
2014,03,28,07,59,6.40
2014,03,28,08,02,6.40
2014,03,28,08,03,6.40
2014,03,28,08,04,6.40
2014,03,28,08,05,6.40
2014,03,28,08,06,6.40
2014,03,28,08,07,6.40
2014,03,28,08,08,6.40
2014,03,28,08,09,6.40
2014,03,28,08,11,6.40
2014,03,28,08,12,6.40
2014,03,28,08,13,6.40
2014,03,28,08,14,6.40
2014,03,28,08,16,6.40
2014,03,28,08,18,6.40
2014,03,28,08,19,6.40
2014,03,28,08,20,6.40
2014,03,28,08,21,6.40
2014,03,28,08,22,6.40
2014,03,28,08,24,6.40
2014,03,28,08,26,6.40
2014,03,28,08,27,6.40
2014,03,28,08,28,6.40
2014,03,28,08,29,6.40
2014,03,28,08,30,6.40
2014,03,28,08,31,6.40
2014,03,28,08,32,6.40
2014,03,28,08,33,6.40
2014,03,28,08,34,6.40
2014,03,28,08,36,6.40
2014,03,28,08,37,6.40
2014,03,28,08,39,6.40
2014,03,28,08,40,6.40
2014,03,28,08,42,6.40
2014,03,28,08,44,6.40
2014,03,28,08,45,6.40
2014,03,28,08,46,6.40
2014,03,28,08,48,6.40
2014,03,28,08,49,6.40
2014,03,28,08,51,6.40
2014,03,28,08,52,6.40
2014,03,28,08,53,6.40
2014,03,28,08,54,6.40
2014,03,28,08,55,6.40
2014,03,28,08,57,6.40
2014,03,28,08,59,6.40
2014,03,28,09,01,6.40
2014,03,28,09,03,6.40
2014,03,28,09,04,6.30
2014,03,28,09,05,6.30
2014,03,28,09,06,6.30
2014,03,28,09,07,6.30
2014,03,28,09,08,6.30
2014,03,28,09,09,6.30
2014,03,28,09,11,6.30
2014,03,28,09,12,6.30
2014,03,28,09,13,6.30
2014,03,28,09,14,6.30
2014,03,28,09,16,6.30
2014,03,28,09,18,6.30
2014,03,28,09,19,6.30
2014,03,28,09,21,6.30
2014,03,28,09,22,6.30
2014,03,28,09,24,6.30
2014,03,28,09,26,6.30
2014,03,28,09,28,6.30
2014,03,28,09,29,6.30
2014,03,28,09,31,6.30
2014,03,28,09,32,6.30
2014,03,28,09,33,6.30
2014,03,28,09,34,6.30
2014,03,28,09,35,6.40
2014,03,28,09,37,6.30
2014,03,28,09,38,6.40
2014,03,28,09,39,6.40
2014,03,28,09,40,6.40
2014,03,28,09,42,6.40
2014,03,28,09,43,6.40
2014,03,28,09,44,6.40
2014,03,28,09,46,6.40
2014,03,28,09,48,6.40
2014,03,28,09,49,6.40
2014,03,28,09,50,6.40
2014,03,28,09,52,6.40
2014,03,28,09,53,6.40
2014,03,28,09,54,6.40
2014,03,28,09,55,6.40
2014,03,28,09,56,6.30
2014,03,28,09,57,6.30
2014,03,28,09,58,6.30
2014,03,28,09,59,6.30
2014,03,28,10,00,6.30
2014,03,28,10,02,6.30
2014,03,28,10,04,6.30
2014,03,28,10,05,6.30
2014,03,28,10,06,6.30
2014,03,28,10,07,6.30
2014,03,28,10,08,6.30
2014,03,28,10,09,6.20
2014,03,28,10,11,6.20
2014,03,28,10,12,6.20
2014,03,28,10,14,6.20
2014,03,28,10,16,6.20
2014,03,28,10,18,6.30
2014,03,28,10,20,6.30
2014,03,28,10,21,6.30
2014,03,28,10,22,6.30
2014,03,28,10,23,6.30
2014,03,28,10,25,6.30
2014,03,28,10,26,6.30
2014,03,28,10,27,6.30
2014,03,28,10,29,6.30
2014,03,28,10,30,6.30
2014,03,28,10,32,6.30
2014,03,28,10,34,6.30
2014,03,28,10,35,6.30
2014,03,28,10,37,6.30
2014,03,28,10,38,6.30
2014,03,28,10,39,6.30
2014,03,28,10,40,6.30
2014,03,28,10,42,6.30
2014,03,28,10,44,6.20
2014,03,28,10,45,6.20
2014,03,28,10,46,6.20
2014,03,28,10,48,6.20
2014,03,28,10,49,6.30
2014,03,28,10,51,6.30
2014,03,28,10,52,6.30
2014,03,28,10,54,6.30
2014,03,28,10,56,6.20
2014,03,28,10,57,6.20
2014,03,28,10,58,6.20
2014,03,28,10,59,6.20
2014,03,28,11,01,6.20
2014,03,28,11,03,6.20
2014,03,28,11,04,6.20
2014,03,28,11,05,6.20
2014,03,28,11,06,6.20
2014,03,28,11,07,6.20
2014,03,28,11,08,6.20
2014,03,28,11,09,6.20
2014,03,28,11,10,6.20
2014,03,28,11,11,6.20
2014,03,28,11,13,6.20
2014,03,28,11,14,6.20
2014,03,28,11,16,6.20
2014,03,28,11,17,6.20
2014,03,28,11,19,6.20
2014,03,28,11,21,6.20
2014,03,28,11,22,6.20
2014,03,28,11,23,6.30
2014,03,28,11,24,6.30
2014,03,28,11,25,6.30
2014,03,28,11,26,6.30
2014,03,28,11,27,6.40
2014,03,28,11,29,6.50
2014,03,28,11,31,6.50
2014,03,28,11,32,6.50
2014,03,28,11,33,6.50
2014,03,28,11,34,6.50
2014,03,28,11,35,6.50
2014,03,28,11,36,6.50
2014,03,28,11,37,6.60
2014,03,28,11,39,6.60
2014,03,28,11,40,6.60
2014,03,28,11,41,6.50
2014,03,28,11,43,6.50
2014,03,28,11,44,6.50
2014,03,28,11,46,6.50
2014,03,28,11,48,6.50
2014,03,28,11,49,6.60
2014,03,28,11,50,6.60
2014,03,28,11,52,6.60
2014,03,28,11,54,6.70
2014,03,28,11,55,6.70
2014,03,28,11,56,6.70
2014,03,28,11,57,6.70
2014,03,28,11,59,6.70
2014,03,28,12,00,6.70
2014,03,28,12,02,6.70
2014,03,28,12,03,6.80
2014,03,28,12,04,6.80
2014,03,28,12,05,6.80
2014,03,28,12,06,6.80
2014,03,28,12,07,6.80
2014,03,28,12,08,6.80
2014,03,28,12,09,6.80
2014,03,28,12,11,6.90
2014,03,28,12,13,6.90
2014,03,28,12,14,6.90
2014,03,28,12,15,6.90
2014,03,28,12,17,6.90
2014,03,28,12,19,6.90
2014,03,28,12,20,6.90
2014,03,28,12,21,6.90
2014,03,28,12,22,6.90
2014,03,28,12,24,6.90
2014,03,28,12,26,6.90
2014,03,28,12,27,6.90
2014,03,28,12,28,6.90
2014,03,28,12,29,6.90
2014,03,28,12,30,7.00
2014,03,28,12,31,7.00
2014,03,28,12,32,7.00
2014,03,28,12,33,7.00
2014,03,28,12,34,7.10
2014,03,28,12,36,7.10
2014,03,28,12,37,7.10
2014,03,28,12,39,7.00
2014,03,28,12,41,6.90
2014,03,28,12,42,6.90
2014,03,28,12,44,6.90
2014,03,28,12,45,6.90
2014,03,28,12,47,6.90
2014,03,28,12,49,6.90
2014,03,28,12,51,6.90
2014,03,28,12,53,7.00
2014,03,28,12,54,7.10
2014,03,28,12,55,7.10
2014,03,28,12,56,7.10
2014,03,28,12,57,7.10
2014,03,28,12,58,7.10
2014,03,28,12,59,7.20
2014,03,28,13,01,7.20
2014,03,28,13,03,7.30
2014,03,28,13,04,7.30
2014,03,28,13,05,7.40
2014,03,28,13,06,7.40
2014,03,28,13,07,7.40
2014,03,28,13,08,7.50
2014,03,28,13,09,7.50
2014,03,28,13,10,7.50
2014,03,28,13,12,7.60
2014,03,28,13,14,7.60
2014,03,28,13,15,7.70
2014,03,28,13,16,7.70
2014,03,28,13,17,7.80
2014,03,28,13,19,7.90
2014,03,28,13,20,7.90
2014,03,28,13,22,8.00
2014,03,28,13,23,8.00
2014,03,28,13,24,8.10
2014,03,28,13,26,8.10
2014,03,28,13,27,8.10
2014,03,28,13,28,8.00
2014,03,28,13,29,8.00
2014,03,28,13,30,8.00
2014,03,28,13,32,8.00
2014,03,28,13,34,8.00
2014,03,28,13,35,8.10
2014,03,28,13,37,8.10
2014,03,28,13,39,8.20
2014,03,28,13,40,8.30
2014,03,28,13,42,8.40
2014,03,28,13,43,8.40
2014,03,28,13,44,8.50
2014,03,28,13,45,8.50
2014,03,28,13,46,8.50
2014,03,28,13,47,8.50
2014,03,28,13,49,8.50
2014,03,28,13,50,8.50
2014,03,28,13,52,8.50
2014,03,28,13,53,8.50
2014,03,28,13,55,8.40
2014,03,28,13,57,8.40
2014,03,28,13,59,8.40
2014,03,28,14,00,8.40
2014,03,28,14,02,8.40
2014,03,28,14,04,8.40
2014,03,28,14,05,8.40
2014,03,28,14,06,8.40
2014,03,28,14,07,8.40
2014,03,28,14,08,8.40
2014,03,28,14,09,8.50
2014,03,28,14,10,8.50
2014,03,28,14,11,8.60
2014,03,28,14,13,8.60
2014,03,28,14,14,8.60
2014,03,28,14,16,8.60
2014,03,28,14,17,8.60
2014,03,28,14,19,8.50
2014,03,28,14,20,8.50
2014,03,28,14,22,8.50
2014,03,28,14,23,8.40
2014,03,28,14,24,8.40
2014,03,28,14,26,8.40
2014,03,28,14,28,8.40
2014,03,28,14,29,8.40
2014,03,28,14,31,8.50
2014,03,28,14,32,8.50
2014,03,28,14,34,8.50
2014,03,28,14,36,8.50
2014,03,28,14,38,8.60
2014,03,28,14,40,8.70
2014,03,28,14,41,8.70
2014,03,28,14,42,8.70
2014,03,28,14,44,8.80
2014,03,28,14,46,8.80
2014,03,28,14,47,8.80
2014,03,28,14,49,8.80
2014,03,28,14,50,8.80
2014,03,28,14,52,8.70
2014,03,28,14,54,8.70
2014,03,28,14,56,8.70
2014,03,28,14,58,8.70
2014,03,28,14,59,8.70
2014,03,28,15,01,8.60
2014,03,28,15,02,8.60
2014,03,28,15,04,8.50
2014,03,28,15,05,8.50
2014,03,28,15,06,8.50
2014,03,28,15,07,8.50
2014,03,28,15,08,8.50
2014,03,28,15,09,8.50
2014,03,28,15,10,8.50
2014,03,28,15,12,8.50
2014,03,28,15,13,8.50
2014,03,28,15,14,8.50
2014,03,28,15,15,8.50
2014,03,28,15,16,8.40
2014,03,28,15,18,8.40
2014,03,28,15,19,8.30
2014,03,28,15,20,8.30
2014,03,28,15,22,8.30
2014,03,28,15,23,8.20
2014,03,28,15,24,8.20
2014,03,28,15,25,8.20
2014,03,28,15,27,8.10
2014,03,28,15,28,8.10
2014,03,28,15,29,8.10
2014,03,28,15,30,8.00
2014,03,28,15,31,7.90
2014,03,28,15,33,7.90
2014,03,28,15,34,7.90
2014,03,28,15,35,7.90
2014,03,28,15,36,7.80
2014,03,28,15,38,7.80
2014,03,28,15,39,7.80
2014,03,28,15,41,7.80
2014,03,28,15,43,7.70
2014,03,28,15,45,7.70
2014,03,28,15,46,7.70
2014,03,28,15,48,7.70
2014,03,28,15,49,7.70
2014,03,28,15,51,7.70
2014,03,28,15,52,7.70
2014,03,28,15,54,7.70
2014,03,28,15,56,7.60
2014,03,28,15,58,7.60
2014,03,28,15,59,7.60
2014,03,28,16,01,7.50
2014,03,28,16,03,7.40
2014,03,28,16,04,7.40
2014,03,28,16,05,7.40
2014,03,28,16,06,7.30
2014,03,28,16,07,7.30
2014,03,28,16,08,7.30
2014,03,28,16,09,7.30
2014,03,28,16,10,7.30
2014,03,28,16,12,7.30
2014,03,28,16,14,7.20
2014,03,28,16,16,7.20
2014,03,28,16,17,7.20
2014,03,28,16,19,7.20
2014,03,28,16,20,7.20
2014,03,28,16,21,7.20
2014,03,28,16,23,7.20
2014,03,28,16,24,7.20
2014,03,28,16,26,7.20
2014,03,28,16,28,7.30
2014,03,28,16,29,7.30
2014,03,28,16,31,7.30
2014,03,28,16,32,7.30
2014,03,28,16,34,7.30
2014,03,28,16,35,7.30
2014,03,28,16,37,7.30
2014,03,28,16,39,7.30
2014,03,28,16,41,7.40
2014,03,28,16,42,7.40
2014,03,28,16,43,7.30
2014,03,28,16,44,7.40
2014,03,28,16,46,7.30
2014,03,28,16,47,7.30
2014,03,28,16,48,7.30
2014,03,28,16,49,7.30
2014,03,28,16,50,7.30
2014,03,28,16,52,7.30
2014,03,28,16,53,7.40
2014,03,28,16,55,7.40
2014,03,28,16,56,7.40
2014,03,28,16,57,7.40
2014,03,28,16,59,7.40
2014,03,28,17,00,7.50
2014,03,28,17,02,7.50
2014,03,28,17,04,7.60
2014,03,28,17,05,7.60
2014,03,28,17,06,7.60
2014,03,28,17,07,7.60
2014,03,28,17,08,7.60
2014,03,28,17,09,7.60
2014,03,28,17,11,7.60
2014,03,28,17,12,7.50
2014,03,28,17,13,7.50
2014,03,28,17,14,7.40
2014,03,28,17,16,7.40
2014,03,28,17,17,7.40
2014,03,28,17,18,7.40
2014,03,28,17,19,7.40
2014,03,28,17,20,7.40
2014,03,28,17,21,7.40
2014,03,28,17,23,7.40
2014,03,28,17,24,7.40
2014,03,28,17,26,7.40
2014,03,28,17,28,7.40
2014,03,28,17,29,7.40
2014,03,28,17,31,7.40
2014,03,28,17,32,7.40
2014,03,28,17,33,7.40
2014,03,28,17,34,7.40
2014,03,28,17,35,7.40
2014,03,28,17,36,7.40
2014,03,28,17,38,7.30
2014,03,28,17,39,7.30
2014,03,28,17,40,7.30
2014,03,28,17,42,7.30
2014,03,28,17,43,7.30
2014,03,28,17,44,7.30
2014,03,28,17,45,7.30
2014,03,28,17,46,7.30
2014,03,28,17,47,7.30
2014,03,28,17,49,7.30
2014,03,28,17,50,7.40
2014,03,28,17,51,7.30
2014,03,28,17,53,7.40
2014,03,28,17,54,7.30
2014,03,28,17,55,7.40
2014,03,28,17,56,7.40
2014,03,28,17,57,7.40
2014,03,28,17,58,7.40
2014,03,28,17,59,7.40
2014,03,28,18,00,7.40
2014,03,28,18,01,7.40
2014,03,28,18,02,7.40
2014,03,28,18,04,7.30
2014,03,28,18,05,7.30
2014,03,28,18,06,7.30
2014,03,28,18,07,7.30
2014,03,28,18,08,7.30
2014,03,28,18,09,7.30
2014,03,28,18,10,7.30
2014,03,28,18,11,7.40
2014,03,28,18,12,7.40
2014,03,28,18,13,7.40
2014,03,28,18,14,7.40
2014,03,28,18,15,7.40
2014,03,28,18,16,7.40
2014,03,28,18,17,7.40
2014,03,28,18,19,7.40
2014,03,28,18,20,7.30
2014,03,28,18,21,7.30
2014,03,28,18,22,7.30
2014,03,28,18,23,7.30
2014,03,28,18,24,7.30
2014,03,28,18,25,7.30
2014,03,28,18,26,7.30
2014,03,28,18,28,7.30
2014,03,28,18,29,7.30
2014,03,28,18,30,7.20
2014,03,28,18,31,7.20
2014,03,28,18,33,7.20
2014,03,28,18,34,7.20
2014,03,28,18,35,7.20
2014,03,28,18,36,7.20
2014,03,28,18,37,7.20
2014,03,28,18,38,7.20
2014,03,28,18,39,7.20
2014,03,28,18,40,7.20
2014,03,28,18,41,7.20
2014,03,28,18,42,7.20
2014,03,28,18,43,7.20
2014,03,28,18,44,7.20
2014,03,28,18,45,7.20
2014,03,28,18,46,7.20
2014,03,28,18,47,7.20
2014,03,28,18,48,7.20
2014,03,28,18,49,7.10
2014,03,28,18,50,7.20
2014,03,28,18,51,7.10
2014,03,28,18,53,7.20
2014,03,28,18,54,7.20
2014,03,28,18,55,7.20
2014,03,28,18,56,7.20
2014,03,28,18,57,7.10
2014,03,28,18,58,7.10
2014,03,28,18,59,7.10
2014,03,28,19,00,7.10
2014,03,28,19,01,7.10
2014,03,28,19,02,7.10
2014,03,28,19,04,7.00
2014,03,28,19,05,7.00
2014,03,28,19,06,6.90
2014,03,28,19,07,6.90
2014,03,28,19,08,6.90
2014,03,28,19,09,6.90
2014,03,28,19,10,6.90
2014,03,28,19,11,6.90
2014,03,28,19,12,6.90
2014,03,28,19,13,6.90
2014,03,28,19,14,6.90
2014,03,28,19,15,6.90
2014,03,28,19,16,7.00
2014,03,28,19,17,6.90
2014,03,28,19,18,6.90
2014,03,28,19,19,6.90
2014,03,28,19,20,6.90
2014,03,28,19,21,6.90
2014,03,28,19,23,6.90
2014,03,28,19,24,6.90
2014,03,28,19,25,6.90
2014,03,28,19,26,6.90
2014,03,28,19,27,6.90
2014,03,28,19,28,6.90
2014,03,28,19,29,6.90
2014,03,28,19,30,6.90
2014,03,28,19,31,6.90
2014,03,28,19,32,6.90
2014,03,28,19,33,6.90
2014,03,28,19,34,6.90
2014,03,28,19,35,6.90
2014,03,28,19,36,6.90
2014,03,28,19,38,6.90
2014,03,28,19,39,6.90
2014,03,28,19,40,6.80
2014,03,28,19,41,6.80
2014,03,28,19,42,6.80
2014,03,28,19,43,6.80
2014,03,28,19,44,6.80
2014,03,28,19,45,6.80
2014,03,28,19,46,6.80
2014,03,28,19,47,6.80
2014,03,28,19,48,6.80
2014,03,28,19,49,6.80
2014,03,28,19,50,6.80
2014,03,28,19,51,6.80
2014,03,28,19,52,6.80
2014,03,28,19,53,6.80
2014,03,28,19,54,6.80
2014,03,28,19,55,6.80
2014,03,28,19,56,6.80
2014,03,28,19,57,6.80
2014,03,28,19,58,6.90
2014,03,28,19,59,6.90
2014,03,28,20,00,6.80
2014,03,28,20,01,6.80
2014,03,28,20,03,6.80
2014,03,28,20,04,6.80
2014,03,28,20,05,6.80
2014,03,28,20,06,6.80
2014,03,28,20,07,6.80
2014,03,28,20,08,6.80
2014,03,28,20,09,6.80
2014,03,28,20,10,6.80
2014,03,28,20,11,6.80
2014,03,28,20,12,6.80
2014,03,28,20,13,6.70
2014,03,28,20,14,6.70
2014,03,28,20,15,6.70
2014,03,28,20,16,6.70
2014,03,28,20,18,6.80
2014,03,28,20,19,6.80
2014,03,28,20,20,6.70
2014,03,28,20,21,6.70
2014,03,28,20,22,6.70
2014,03,28,20,23,6.70
2014,03,28,20,24,6.70
2014,03,28,20,26,6.70
2014,03,28,20,27,6.70
2014,03,28,20,28,6.70
2014,03,28,20,29,6.70
2014,03,28,20,30,6.70
2014,03,28,20,31,6.70
2014,03,28,20,32,6.70
2014,03,28,20,33,6.70
2014,03,28,20,34,6.70
2014,03,28,20,35,6.70
2014,03,28,20,36,6.70
2014,03,28,20,37,6.70
2014,03,28,20,38,6.70
2014,03,28,20,39,6.70
2014,03,28,20,40,6.60
2014,03,28,20,41,6.60
2014,03,28,20,42,6.60
2014,03,28,20,43,6.60
2014,03,28,20,44,6.60
2014,03,28,20,45,6.60
2014,03,28,20,46,6.60
2014,03,28,20,47,6.60
2014,03,28,20,48,6.60
2014,03,28,20,49,6.60
2014,03,28,20,50,6.60
2014,03,28,20,51,6.60
2014,03,28,20,52,6.60
2014,03,28,20,53,6.60
2014,03,28,20,54,6.60
2014,03,28,20,55,6.60
2014,03,28,20,56,6.60
2014,03,28,20,57,6.60
2014,03,28,20,58,6.60
2014,03,28,20,59,6.60
2014,03,28,21,00,6.60
2014,03,28,21,01,6.70
2014,03,28,21,04,6.70
2014,03,28,21,05,6.70
2014,03,28,21,06,6.70
2014,03,28,21,07,6.70
2014,03,28,21,08,6.70
2014,03,28,21,09,6.70
2014,03,28,21,10,6.70
2014,03,28,21,11,6.70
2014,03,28,21,12,6.70
2014,03,28,21,13,6.70
2014,03,28,21,14,6.80
2014,03,28,21,15,6.80
2014,03,28,21,16,6.80
2014,03,28,21,17,6.80
2014,03,28,21,19,6.90
2014,03,28,21,20,6.90
2014,03,28,21,21,7.00
2014,03,28,21,22,7.10
2014,03,28,21,23,7.20
2014,03,28,21,24,7.20
2014,03,28,21,25,7.20
2014,03,28,21,26,7.20
2014,03,28,21,27,7.30
2014,03,28,21,29,7.30
2014,03,28,21,31,7.30
2014,03,28,21,32,7.30
2014,03,28,21,33,7.30
2014,03,28,21,34,7.30
2014,03,28,21,35,7.30
2014,03,28,21,36,7.30
2014,03,28,21,37,7.30
2014,03,28,21,38,7.30
2014,03,28,21,39,7.30
2014,03,28,21,40,7.30
2014,03,28,21,41,7.30
2014,03,28,21,42,7.30
2014,03,28,21,43,7.30
2014,03,28,21,44,7.40
2014,03,28,21,45,7.40
2014,03,28,21,46,7.50
2014,03,28,21,47,7.60
2014,03,28,21,48,7.60
2014,03,28,21,49,7.60
2014,03,28,21,50,7.70
2014,03,28,21,51,7.70
2014,03,28,21,52,7.70
2014,03,28,21,53,7.80
2014,03,28,21,54,7.80
2014,03,28,21,55,7.80
2014,03,28,21,56,7.80
2014,03,28,21,57,7.80
2014,03,28,21,58,7.80
2014,03,28,22,00,7.80
2014,03,28,22,01,7.80
2014,03,28,22,02,7.70
2014,03,28,22,04,7.60
2014,03,28,22,05,7.60
2014,03,28,22,06,7.60
2014,03,28,22,07,7.50
2014,03,28,22,08,7.50
2014,03,28,22,09,7.50
2014,03,28,22,10,7.40
2014,03,28,22,11,7.40
2014,03,28,22,12,7.40
2014,03,28,22,13,7.40
2014,03,28,22,14,7.40
2014,03,28,22,15,7.40
2014,03,28,22,16,7.40
2014,03,28,22,17,7.40
2014,03,28,22,18,7.40
2014,03,28,22,19,7.40
2014,03,28,22,20,7.40
2014,03,28,22,21,7.40
2014,03,28,22,23,7.30
2014,03,28,22,24,7.30
2014,03,28,22,25,7.30
2014,03,28,22,26,7.20
2014,03,28,22,28,7.20
2014,03,28,22,29,7.20